Lapse_Rate
8.5 8.0 8.6 8.3 7.8 7.4 7.2 6.9 6.7 6.7 6.8 7.0 6.8 6.5 6.3 6.4 6.6 6.1 5.6 6.0 5.8 5.8 5.7 5.6 5.2 5.4 5.7 5.6 5.7 5.5 5.5 5.4 5.6 5.9 5.9 5.8 5.8 5.6 5.6 5.3 5.1 5.3 5.6
8.4 8.4 8.3 8.5 8.2 8.0 7.6 7.3 7.1 6.9 7.1 7.1 6.6 6.4 6.7 6.9 6.3 6.4 6.3 6.1 6.0 5.7 5.6 5.2 5.1 4.8 5.2 5.3 5.7 5.9 5.6 5.5 5.7 5.7 5.7 5.6 5.4 5.2 5.3 5.2 5.1 5.2 5.4
8.7 8.1 7.8 7.7 8.2 8.4 8.3 8.1 7.8 7.4 7.4 7.4 7.0 5.8 6.0 5.9 6.5 6.5 6.3 6.2 6.4 5.6 5.3 4.9 4.7 4.7 5.1 5.4 5.2 5.4 5.2 5.5 5.6 5.6 5.7 5.4 5.1 5.4 5.3 5.4 5.2 5.6 5.3
8.2 7.6 7.3 7.5 8.1 8.1 8.3 8.4 8.2 7.8 7.7 7.4 7.0 7.2 6.5 5.9 6.2 6.2 5.9 6.3 5.4 5.5 4.9 4.9 4.8 4.6 4.8 5.0 5.0 5.1 5.3 5.3 5.4 5.4 5.7 5.5 5.4 5.3 5.2 5.2 5.3 5.1 5.1
7.4 7.4 7.5 7.6 7.9 8.0 7.8 7.6 7.5 7.2 7.4 6.8 6.8 6.5 6.5 6.6 6.4 6.0 5.8 5.7 6.0 5.4 5.0 5.1 5.0 4.7 4.7 5.2 5.0 5.0 5.1 5.6 5.4 5.4 5.6 5.6 5.5 5.3 5.5 5.5 5.4 5.4 5.3
7.8 7.6 7.8 7.3 7.2 7.6 7.5 7.4 7.1 7.2 6.5 6.8 7.1 5.7 5.9 6.6 6.1 6.0 5.8 5.9 5.8 5.4 5.0 5.0 4.8 4.8 4.8 4.8 5.1 5.0 5.0 5.2 5.1 5.3 5.4 5.4 5.3 5.3 5.8 5.9 5.7 5.8 5.6
7.7 7.6 7.6 7.5 7.2 7.5 7.7 7.4 7.2 6.9 6.8 6.5 6.7 5.2 6.2 6.4 5.9 5.7 5.8 5.7 5.5 5.5 5.1 5.0 5.0 4.9 4.9 5.2 5.2 5.3 5.3 5.1 5.0 5.2 5.4 5.4 5.4 5.4 5.5 5.3 5.7 5.6 5.9
7.5 7.4 7.4 7.1 6.9 6.9 7.1 7.2 6.6 6.1 6.2 6.1 6.6 6.4 6.4 7.1 6.5 6.0 5.7 5.6 5.7 5.8 5.5 5.3 5.1 5.1 5.3 5.2 5.2 5.1 5.2 5.5 5.3 5.4 5.7 5.7 5.3 5.3 5.5 5.9 6.0 6.0 6.0
6.8 6.5 6.5 6.6 6.7 6.6 6.6 6.5 6.4 6.4 6.0 6.1 6.1 6.5 6.7 7.0 6.3 5.9 5.8 5.7 5.7 5.6 5.5 5.7 5.6 5.6 5.5 5.5 5.4 5.2 5.3 5.6 5.8 5.8 5.8 5.7 5.7 5.7 5.8 5.9 5.9 5.8 5.5
6.6 6.3 6.1 6.1 6.2 6.2 5.9 6.1 6.1 6.1 6.1 5.9 6.1 6.1 6.1 6.7 5.9 5.9 5.7 5.4 5.4 5.5 5.5 5.7 5.5 5.6 5.8 6.0 6.2 6.1 6.0 6.1 6.0 6.0 5.9 6.2 6.3 6.4 6.4 6.3 6.3 6.3 5.9
6.0 5.9 5.7 5.9 6.2 6.1 6.0 5.8 5.8 5.8 5.5 5.4 6.0 6.1 6.1 6.5 5.9 5.7 5.5 5.2 5.2 5.5 5.7 5.7 5.5 5.7 6.0 6.2 6.1 5.9 6.1 5.9 6.1 6.1 6.1 6.0 6.0 6.1 6.1 6.1 6.0 6.0 6.1
5.4 5.7 5.7 5.8 5.7 6.0 5.6 5.9 5.8 5.2 5.1 5.1 5.4 6.1 6.3 6.8 6.3 5.7 5.5 5.2 5.5 5.5 5.7 5.8 5.7 6.0 6.2 6.4 6.4 6.3 6.0 6.0 6.2 6.3 6.3 6.2 6.1 6.1 6.0 5.9 5.9 6.0 6.0
5.6 5.5 5.8 5.7 5.4 5.3 5.6 6.1 5.5 5.3 5.3 5.0 5.3 6.0 6.2 6.8 6.0 5.6 5.4 5.5 5.6 5.7 5.9 5.8 5.7 5.9 6.2 6.3 6.3 6.2 6.1 6.1 6.1 6.1 5.9 5.7 5.7 5.7 5.7 5.7 5.7 5.7 5.7
5.1 5.1 5.3 5.7 5.5 5.6 5.7 5.9 5.8 5.4 5.4 4.6 5.0 5.4 5.4 6.0 5.5 5.7 5.6 5.7 5.8 5.8 6.0 6.1 6.0 6.0 6.1 6.1 5.9 5.8 5.7 5.5 5.6 5.6 5.5 5.4 5.4 5.6 5.6 5.7 5.8 5.8 5.8
4.7 4.2 5.4 5.8 6.0 5.8 6.1 6.0 6.0 6.2 5.2 4.6 4.8 4.8 5.9 5.9 6.1 5.7 5.5 5.7 5.8 5.9 6.1 5.9 5.5 5.6 5.7 5.5 5.4 5.4 5.3 5.3 5.3 5.2 5.2 5.2 5.5 5.7 5.9 6.0 6.0 5.7 5.6
4.3 4.4 5.0 5.5 5.9 5.8 6.0 4.9 4.6 4.7 4.8 4.5 4.5 5.4 5.8 5.8 5.6 5.7 5.6 5.8 5.7 6.0 5.9 5.5 5.3 5.4 5.5 5.5 5.5 5.4 5.2 5.1 5.1 5.2 5.3 5.3 5.4 5.4 5.4 5.4 5.5 5.4 5.4
4.9 4.9 5.7 5.9 6.0 5.8 6.2 3.9 4.2 3.9 4.5 4.5 4.3 5.1 5.4 5.5 5.5 5.3 5.5 5.6 5.6 5.7 5.7 5.3 5.1 5.2 5.0 5.1 5.0 4.9 5.0 5.1 5.3 5.3 5.3 5.4 5.4 5.5 5.6 5.7 5.3 5.1 5.3
4.5 4.8 5.2 5.6 5.7 5.5 4.8 4.2 3.8 3.6 4.0 4.7 4.3 5.1 5.5 5.1 5.1 5.3 5.0 5.2 5.6 5.7 5.2 5.0 5.0 4.9 4.9 5.1 5.1 5.2 5.2 5.3 5.3 5.4 5.4 5.5 5.4 5.3 5.4 5.4 5.3 5.4 5.4
4.3 4.4 4.4 4.7 4.7 4.7 4.9 4.1 3.6 3.9 4.8 4.5 4.5 4.9 4.8 4.9 5.4 5.3 5.1 5.4 5.4 5.0 4.8 4.9 5.0 5.1 5.1 5.1 5.1 5.2 5.3 5.4 5.6 5.5 5.6 5.6 5.5 5.6 5.6 5.5 5.4 5.4 5.5
5.1 4.6 4.5 4.5 4.8 4.6 4.9 4.9 5.1 3.7 3.9 4.4 4.9 5.2 5.2 5.2 5.1 5.0 5.1 5.0 4.9 4.8 5.0 5.1 5.0 4.9 4.9 4.9 5.1 5.4 5.6 5.5 5.5 5.7 5.7 5.5 5.6 5.7 5.7 5.6 5.4 5.4 5.4
5.1 5.5 5.3 4.9 4.8 4.5 4.4 3.9 3.8 4.3 4.6 4.8 5.1 4.9 4.9 4.8 4.8 4.9 4.9 4.9 5.0 5.0 5.0 4.9 5.0 4.8 4.8 5.2 5.5 5.6 5.5 5.6 5.8 5.9 5.6 5.6 5.7 5.6 5.2 5.2 5.4 5.4 5.4
5.2 5.4 5.2 5.1 5.2 5.1 5.0 4.9 5.0 4.9 5.0 5.1 5.0 5.1 5.1 5.0 4.9 5.0 5.1 5.3 5.3 5.4 5.5 5.3 5.1 5.0 5.2 5.4 5.4 5.5 5.6 5.7 5.7 5.7 5.7 5.4 5.1 5.0 5.0 4.8 4.9 4.9 4.8
5.0 5.4 5.6 5.3 5.2 5.3 5.5 5.6 5.6 5.5 5.4 5.2 5.1 5.1 5.2 5.3 5.4 5.6 5.7 5.6 5.5 5.4 5.4 5.4 5.4 5.5 5.5 5.4 5.4 5.5 5.5 5.3 5.5 5.4 5.1 4.9 4.6 4.5 4.5 4.4 4.5 4.5 4.4
5.3 5.4 5.4 5.4 5.4 5.4 5.5 5.5 5.5 5.5 5.4 5.4 5.3 5.4 5.4 5.5 5.5 5.5 5.5 5.4 5.4 5.4 5.5 5.4 5.4 5.3 5.4 5.4 5.2 5.0 4.9 5.2 5.2 5.0 4.6 4.5 4.7 4.7 4.5 4.0 4.0 4.3 4.3
5.6 5.5 5.4 5.3 5.3 5.2 5.3 5.4 5.5 5.7 5.7 5.6 5.7 5.7 5.7 5.7 5.7 5.6 5.6 5.6 5.6 5.4 5.2 5.3 5.5 5.7 5.4 5.2 4.9 5.0 4.7 4.3 4.5 4.3 4.5 4.8 5.0 4.9 4.8 4.5 4.4 4.4 4.3
5.6 5.6 5.6 5.5 5.5 5.7 5.8 5.9 5.9 6.0 6.0 5.9 5.9 5.9 5.9 5.8 5.8 5.7 5.6 5.5 5.3 5.3 5.3 5.4 5.4 5.5 5.3 5.2 5.1 4.8 4.8 4.8 4.2 4.1 4.4 4.5 4.7 4.9 4.7 4.7 4.7 4.7 4.6
Wind_Speed
11 11 12 14 15 12 12 13 12 9 7 6 4 5 7 8 5 8 11 13 13 13 12 11 11 7 6 4 6 6 7 7 8 5 2 3 1 2 5 5 6 6 8
10 11 12 13 13 13 13 13 9 8 9 10 9 7 7 10 14 13 13 12 11 12 12 7 6 6 8 7 5 6 7 8 7 7 1 2 2 6 6 5 4 4 5
3 9 11 12 13 14 12 12 12 13 12 7 5 9 14 15 14 11 10 7 4 5 7 8 6 6 7 5 5 5 6 5 5 5 4 2 2 1 3 2 2 3 4
7 6 10 11 13 13 10 10 13 13 12 8 9 15 19 8 6 8 7 3 4 5 4 6 7 6 5 5 5 6 6 6 4 4 3 1 1 1 2 2 1 2 2
10 9 8 8 8 10 11 11 12 12 10 11 13 13 11 9 3 2 1 1 3 4 3 2 4 5 7 5 5 3 5 3 2 3 2 1 2 4 5 4 4 4 2
8 7 5 5 8 11 11 13 14 13 11 8 5 5 6 6 6 2 3 5 5 2 4 5 6 8 7 6 9 6 3 3 1 1 1 2 2 3 3 5 5 5 3
9 7 5 6 7 10 10 11 12 11 10 10 11 12 12 9 11 2 5 6 4 4 5 6 6 5 7 7 12 13 11 9 6 0 1 2 2 5 6 4 4 4 4
9 8 7 8 8 5 6 9 10 9 11 10 10 9 8 6 11 6 5 4 4 5 5 6 7 6 6 7 8 8 7 6 5 3 4 3 2 2 3 4 5 5 6
11 9 9 9 9 7 7 9 9 9 10 7 6 4 7 6 8 10 8 6 6 6 7 7 7 7 5 5 7 6 4 4 7 6 5 5 5 6 2 1 3 5 6
15 14 11 11 10 10 12 12 10 8 8 8 8 7 6 10 7 10 8 6 8 7 7 7 8 4 3 4 5 4 3 4 3 3 4 6 6 8 9 6 4 4 4
15 16 14 14 12 9 8 9 10 9 10 11 10 8 8 9 8 8 6 7 7 6 5 4 3 1 4 7 5 4 5 2 5 6 5 4 4 5 5 5 5 4 4
16 15 17 15 11 8 12 9 9 10 12 11 10 9 7 9 10 8 8 8 6 6 4 4 4 3 7 7 7 8 7 4 4 3 3 3 3 4 4 4 4 4 4
18 15 12 14 11 10 11 11 9 10 9 8 9 9 9 9 8 9 10 8 5 6 7 8 8 10 13 12 9 5 2 4 3 3 3 4 5 5 6 5 5 5 6
14 15 10 10 6 5 5 7 8 9 10 10 8 9 9 8 8 7 7 7 7 7 9 6 7 8 10 8 5 4 5 5 4 4 4 3 4 4 5 5 5 6 6
7 5 8 11 11 9 7 1 8 4 11 10 8 10 10 8 7 6 5 6 5 5 6 4 3 3 4 4 4 4 3 4 4 3 3 4 4 5 4 4 5 7 7
14 14 11 8 9 7 8 7 20 13 15 12 9 9 5 10 11 9 10 9 8 3 3 4 3 2 2 2 3 4 3 2 3 3 3 4 4 5 5 5 5 6 6
15 14 12 11 9 10 9 6 7 9 16 14 12 10 8 12 11 9 10 10 6 2 2 3 2 1 1 1 2 3 3 2 2 3 4 4 4 4 5 5 5 4 5
12 11 9 9 8 11 5 3 1 5 9 6 8 7 11 11 10 10 7 5 2 2 3 4 4 3 2 1 3 4 3 2 2 3 3 3 3 3 4 5 4 5 5
7 6 6 6 7 6 4 2 2 4 7 6 5 5 8 8 7 5 2 5 3 4 4 4 4 3 3 3 3 4 3 4 3 3 3 3 3 4 4 4 4 3 4
7 10 6 6 4 3 1 2 3 2 3 4 4 4 6 4 4 6 6 5 5 5 4 4 4 5 4 4 4 4 4 4 4 4 3 3 3 3 5 5 5 5 6
1 2 2 2 2 3 5 6 4 3 3 4 4 3 2 5 5 5 5 5 5 5 4 5 5 6 5 5 4 4 4 4 4 4 4 3 4 4 5 5 6 6 7
4 4 4 4 4 4 4 3 4 4 4 4 3 3 5 5 5 5 5 5 4 5 4 4 5 6 5 5 4 5 6 5 5 4 5 4 4 5 5 5 5 5 7
4 4 4 4 3 3 3 3 4 4 4 3 3 3 4 4 4 4 4 4 4 4 4 4 5 6 6 7 8 6 7 6 5 5 7 6 6 6 6 6 6 6 7
4 4 4 4 2 2 2 2 3 2 3 3 3 3 3 4 5 5 5 4 4 4 3 3 5 8 6 7 8 9 11 10 10 9 10 9 9 8 8 8 8 10 9
5 4 4 3 3 2 3 3 3 3 4 4 4 5 4 4 4 4 4 3 4 4 5 4 4 6 7 10 9 12 13 19 16 13 13 12 13 14 12 11 10 10 11
3 3 2 2 2 3 3 4 4 4 4 3 4 3 4 5 5 5 4 4 5 5 5 3 3 5 8 9 9 9 11 14 14 18 16 10 12 12 12 14 17 8 9
Wind_Direction
225 238 233 233 228 227 232 228 225 209 208 173 109 42 357 324 302 290 278 275 265 259 238 217 219 234 240 240 226 216 219 230 245 259 263 83 221 212 183 188 224 257 266
211 228 217 228 237 228 219 219 220 199 148 127 96 43 359 326 312 298 284 275 268 262 249 221 207 223 225 220 211 203 217 220 242 247 121 120 145 172 177 211 244 249 325
272 233 236 223 225 225 216 200 179 160 138 124 73 18 347 322 313 298 285 274 251 212 215 182 151 169 176 178 182 190 211 204 217 248 248 156 129 140 183 185 136 97 321
351 287 258 239 230 226 206 178 155 162 157 161 166 192 229 268 285 294 284 236 177 142 141 141 140 121 124 144 160 214 215 202 208 245 260 173 160 157 122 79 168 193 253
335 324 287 263 228 209 193 165 155 158 172 177 180 199 196 150 183 232 308 274 230 195 139 23 59 113 94 97 136 166 196 174 195 233 288 321 61 344 19 11 339 339 310
324 315 276 220 198 195 184 173 169 174 171 184 198 182 181 134 133 171 232 254 264 213 137 109 84 95 101 98 103 85 51 128 133 301 353 359 29 126 53 9 345 347 346
312 298 244 213 203 189 175 164 167 174 171 187 188 179 180 166 137 209 209 237 219 146 130 116 108 99 108 105 90 85 69 44 44 306 157 48 32 15 357 348 339 301 316
288 285 242 201 192 194 179 177 170 183 194 195 194 200 159 142 121 164 167 185 139 124 119 111 105 103 89 121 116 111 110 103 80 23 26 44 354 356 304 304 306 307 281
261 239 227 203 192 181 186 198 203 192 192 195 158 172 146 102 119 147 160 151 129 109 95 86 95 96 72 74 108 96 88 79 87 58 65 77 83 89 94 265 4 330 340
277 260 222 200 203 202 206 205 203 194 180 144 138 161 135 123 128 129 151 143 137 122 115 103 61 76 97 70 100 91 100 82 64 61 102 98 90 90 61 40 9 349 338
280 264 244 215 206 203 197 195 179 161 150 144 133 138 120 116 115 104 119 144 139 135 135 130 96 16 99 90 51 82 89 85 115 109 100 84 67 52 36 26 22 359 339
271 263 237 230 212 189 189 175 167 151 142 135 128 115 106 105 107 105 96 86 104 123 120 92 87 123 102 96 94 96 128 145 78 70 53 38 14 7 4 353 352 336 310
267 256 228 219 206 190 178 164 154 145 131 127 124 119 121 114 111 91 94 96 85 116 100 85 104 110 109 88 78 100 160 61 25 356 5 6 356 352 325 325 316 307 293
238 240 213 194 166 152 171 166 151 141 137 136 123 129 134 126 135 130 133 123 132 122 139 111 82 83 71 99 119 70 50 38 19 18 20 6 335 334 333 343 334 337 322
214 199 72 77 75 65 44 310 111 119 128 135 133 142 142 156 144 125 135 146 136 104 135 141 158 133 109 94 77 43 27 21 18 22 9 352 343 333 337 336 332 329 329
72 81 78 82 78 68 65 27 39 70 82 90 99 125 87 86 108 115 104 100 103 111 151 156 154 151 93 69 37 9 13 6 18 4 343 340 328 324 331 325 332 329 323
68 76 82 73 86 70 57 14 47 52 73 74 84 82 100 127 125 134 130 117 108 246 199 193 211 216 304 21 351 341 333 4 356 329 330 316 312 326 328 322 319 321 337
74 48 95 98 87 88 57 337 143 137 114 97 54 78 102 128 141 140 139 134 157 197 249 244 227 223 236 279 308 316 306 298 289 299 293 304 316 312 294 310 322 341 330
52 51 60 74 79 94 132 154 15 120 124 116 119 101 103 82 85 93 211 264 279 271 247 240 236 243 236 255 284 273 260 256 268 270 271 284 298 288 299 309 319 264 308
84 82 81 103 122 140 162 199 208 189 151 138 165 168 147 142 208 215 225 246 259 268 250 248 229 234 229 243 258 244 240 233 241 251 255 266 272 258 281 302 301 307 311
191 161 163 183 173 190 190 191 181 178 162 170 169 150 93 210 225 225 224 227 246 258 249 244 229 221 221 236 258 252 253 261 252 259 254 259 274 285 294 304 310 310 307
222 203 165 172 186 188 171 180 185 191 184 168 159 125 147 226 225 229 233 229 245 248 250 247 238 226 226 241 235 235 237 239 244 245 258 258 262 262 266 274 287 290 293
162 153 148 136 106 119 120 121 121 120 117 132 162 181 190 213 221 233 233 243 256 242 239 242 245 238 224 227 232 236 248 245 243 243 249 251 252 254 259 268 272 277 278
121 127 132 124 102 86 84 109 120 111 154 165 162 176 204 216 218 212 227 223 231 230 238 260 255 251 248 244 250 253 256 261 252 240 244 255 257 248 250 255 261 265 270
143 136 134 159 174 162 158 170 180 181 194 201 214 217 216 221 234 237 238 240 258 269 265 264 274 284 276 264 244 243 243 245 239 240 253 254 257 260 254 252 255 257 257
144 148 145 154 174 196 216 217 219 217 229 235 247 258 255 253 250 252 256 260 262 263 269 271 276 298 294 287 290 296 284 280 261 254 255 258 257 257 256 254 254 244 235